Simultaneous Nadir Overpasses (SNOs) Predictions

Prediction of SNOs between GOES-16 and NPP Satellite Orbit:

Table of predicted SNOs for the next 14.0 days since TLE Epoch: 8/26/2023
Index Date Time (GOES-16) GOES-16 Lat,Lon NPP Lat,Lon Distance(km) Time Diff (sec)
1 08/27/2023 18:27:57 -0.06, -75.21 -0.16, -75.76 61.46 80
2 08/28/2023 18:11:52 -0.05, -75.22 0.84, -71.22 455.32 80
3 08/30/2023 06:33:38 0.05, -75.23 0.35, -76.49 144.30 80
4 08/31/2023 06:12:13 0.04, -75.23 -0.71, -71.97 373.01 80
5 09/01/2023 18:34:09 -0.04, -75.25 -0.49, -77.27 230.02 80
6 09/02/2023 18:18:03 -0.04, -75.26 0.52, -72.73 287.93 80
7 09/04/2023 06:39:49 0.04, -75.29 0.67, -78.00 309.98 80
8 09/05/2023 06:18:24 0.04, -75.30 -0.34, -73.47 208.17 80
9 09/06/2023 18:40:20 -0.04, -75.32 -0.78, -78.79 394.07 80
10 09/07/2023 18:24:15 -0.03, -75.34 0.23, -74.25 124.33 80
